Regional Weather Roundup
Issued by NWS

Home | Current Version | Previous Version | Graphics & Text | Print | Product List | Glossary Off
Versions: 1 2 3 4 5 6 7 8 9 10 11 12 13 14 15 16 17 18 19 20 21 22 23 24 25 26 27 28 29 30 31 32 33 34 35 36 37 38 39 40 41 42 43 44 45 46 47 48 49 50

000
ASUS43 KMKX 012310
RWRWI

WISCONSIN REGIONAL WEATHER ROUNDUP
NATIONAL WEATHER SERVICE MILWAUKEE/SULLIVAN WI
500 PM CST SUN MAR 01 2015

NOTE: "FAIR" INDICATES FEW OR NO CLOUDS BELOW 12,000 FEET WITH NO
SIGNIFICANT WEATHER AND/OR OBSTRUCTIONS TO VISIBILITY.

WIZ001-002-006>008-014>016-023>028-020000-
NORTHWEST WISCONSIN

CITY           SKY/WX    TMP DP  RH WIND       PRES   REMARKS
SUPERIOR ARPT  CLOUDY    25   9  49 W14G22    30.15R WCI  13
ASHLAND        CLEAR     24   4  42 W16G23    30.13R WCI  11
HAYWARD        CLEAR     23   1  38 W7G17     30.13R WCI  15
SIREN          PTCLDY    24   9  52 W9G18     30.18S WCI  14
CUMBERLAND     PTCLDY    23   7  50 W13G23    30.16S WCI  11
RICE LAKE      CLEAR     23   6  47 W10       30.19S WCI  12
CHETEK         CLEAR     23   6  48 W8        30.18S WCI  14
LADYSMITH      FAIR      23   6  47 W17       30.16R WCI  10
EAU CLAIRE     PTCLDY    24   6  46 W15       30.21R WCI  11
MENOMONIE      CLEAR     26   8  47 W10       30.21S WCI  16
NEW RICHMOND   MOCLDY    26  10  50 W16       30.20S WCI  13
OSCEOLA        CLOUDY    26  12  55 W10       30.23F WCI  17
$$

WIZ003>005-009-010-017-018-020000-
NORTH CENTRAL WISCONSIN

CITY           SKY/WX    TMP DP  RH WIND       PRES   REMARKS
MANITOWISH WTR MOCLDY    21   6  51 W10G16    30.04S WCI  10
ARBOR VITAE    PTCLDY    22   8  54 W12       30.05S WCI  10
WOODRUFF       PTCLDY    22   8  54 W12       30.05S WCI  10
RHINELANDER    CLOUDY    18   8  65 W12       30.07S WCI   5
EAGLE RIVER    MOCLDY    19   7  57 W9        30.04S WCI   9
LAND O LAKES   PTCLDY    20   8  57 W8        30.04S WCI  11
PHILLIPS       PTCLDY    22   5  46 W12G18    30.08S WCI  11
TOMAHAWK       PTCLDY    20   8  57 W8        30.09S WCI  11
MEDFORD        FAIR      21   6  52 W12       30.11S WCI   9
MERRILL        PTCLDY    20  10  63 W10       30.11S WCI   9
$$

WIZ029-030-035-036-043>047-020000-
CENTRAL WISCONSIN

CITY           SKY/WX    TMP DP  RH WIND       PRES   REMARKS
WAUSAU         CLEAR     20   9  62 W15       30.12S WCI   6
MOSINEE        PTCLDY    19  10  68 W17       30.14F WCI   4
MARSHFIELD     CLEAR     22   6  50 W14       30.14F WCI   9
STEVENS POINT  PTCLDY    21   9  60 W13       30.15F WCI   8
WAUPACA        MOCLDY    25  13  61 W10       30.18S WCI  15
WAUTOMA        CLOUDY    24  13  63 W9        30.19S WCI  14
WISC RAPIDS    PTCLDY    24  10  55 W8        30.17F WCI  15
CAMP DOUGLAS   CLEAR     24   9  53 W15       30.20R WCI  11
$$

WIZ011>013-019>022-031-037>040-048>050-020000-
NORTHEAST WISCONSIN

CITY           SKY/WX    TMP DP  RH WIND       PRES   REMARKS
ANTIGO         MOCLDY    16   8  70 W13       30.09F WCI   3
SHAWANO        FLURRIES  24  13  63 W10G17    30.15S WCI  14
OCONTO         CLOUDY    25  14  64 W17G23    30.13S WCI  11
STURGEON BAY   CLOUDY    25  16  68 SW13      30.13F WCI  13
GREEN BAY      MOCLDY    26  16  65 W17       30.14F WCI  13
MANITOWOC      CLOUDY    28  18  66 W13G24    30.15F WCI  17
APPLETON       MOCLDY    25  12  58 W21G26    30.15S WCI  10
CLINTONVILLE   MOCLDY    23  12  63 W16G23    30.15S WCI  10
OSHKOSH        CLOUDY    27  15  61 SW7       30.16S WCI  19
$$

WIZ032>034-041-042-053>061-020000-
SOUTHWEST WISCONSIN

CITY           SKY/WX    TMP DP  RH WIND       PRES   REMARKS
LA CROSSE      CLEAR     24   7  48 W14       30.27R WCI  12
SPARTA         CLEAR     24   6  45 W13       30.24R WCI  13
VIROQUA        CLEAR     22   8  54 W13G22    30.22R WCI  10
BOSCOBEL       CLEAR     25   9  50 W12G18    30.28R WCI  14
PRAIRIE DU CHI MIX PCPN  24   7  50 W17G25    30.30S WCI  10
PLATTEVILLE    MOCLDY    25  16  70 W13       30.26R WCI  13
$$

WIZ056-057-062-063-064-067-068-020000-
SOUTH CENTRAL WISCONSIN

CITY           SKY/WX    TMP DP  RH WIND       PRES   REMARKS
REEDSBURG      PTCLDY    26  12  56 W15       30.21S WCI  13
BARABOO/DELLS  CLEAR     25  13  60 W10       30.19S WCI  15
LONE ROCK      CLEAR     25  12  58 W16G23    30.25R WCI  12
MINERAL POINT  CLEAR     27  14  59 W16       30.23R WCI  14
MADISON        PTCLDY    27  16  63 W6        30.21S WCI  20
MIDDLETON      PTCLDY    29  15  55 W17       30.21R WCI  17
WATERTOWN      CLOUDY    26  17  69 SW9       30.20S WCI  16
MONROE         CLOUDY    27  19  74 W18       30.22F WCI  13
JANESVILLE     PTCLDY    27  16  63 SW14      30.24S WCI  15
$$

WIZ051-052-058>065-066-070>072-020000-
SOUTHEAST WISCONSIN

CITY           SKY/WX    TMP DP  RH WIND       PRES   REMARKS
MILWAUKEE      PTCLDY    26  13  57 SW14      30.21F WCI  14
WAUKESHA       PTCLDY    23  14  68 SW12G17   30.21S WCI  12
MILWAUKEE/TIMM PTCLDY    27  12  54 SW16      30.21F WCI  14
RACINE         CLEAR     25  13  60 W13G18    30.24R WCI  14
BURLINGTON     CLEAR     22  14  69 SW10G17   30.23S WCI  12
KENOSHA        CLEAR     24  14  65 W14       30.22S WCI  12
FOND DU LAC    MOCLDY    28  14  55 W14G22    30.17S WCI  17
SHEBOYGAN      CLOUDY    26  16  65 W15G24    30.17S WCI  14
WEST BEND      CLOUDY    27  14  59 SW9       30.18S WCI  17
JUNEAU         CLOUDY    26  16  65 SW20      30.20R WCI  13
$$

LSZ147-162-020000-
LAKE SUPERIOR

STATION/POSITION TIME  TEMP    WIND        PRES    WAVE
                       AIR SEA DIR/SP/G            HT/PER
                 (UTC) (F)     (DEG/KT/KT) (MB)    (FT/S)
DEVILS ISLAND    2300   24     270/ 18/ 22 1020.0R
PORT WING        2200   25     250/ 14/ 25 1020.0S
SAXON HARBOR     2200   27     280/  6/ 15 1019.0S
$$

LMZ867-665-643>646-020000-
LAKE MICHIGAN

STATION/POSITION TIME  TEMP    WIND        PRES    WAVE
                       AIR SEA DIR/SP/G            HT/PER
                 (UTC) (F)     (DEG/KT/KT) (MB)    (FT/S)
NORTHPORT PIER   2300   26     200/  5/ 16 1019.0F
SISTER BAY       2243   26     210/ 17/ 21   N/A
KEWAUNEE LAKESHO 2212   27     240/  6/ 13 1020.1F
SHEBOYGAN LAKESH 2300   27     240/ 14/ 17 1023.1F
PORT WASHINGTON  2240   27     260/ 11/ 18 1023.0F
MILWAUKEE LAKESH 2200   27     240/ 14/ 18   N/A
KENOSHA   LAKESH 2300   26     250/ 13/ 18 1023.7S
$$

TC  - TEMPERATURE IN CELSIUS
VSB - VISIBILITY IN STATUTE MILES
WCI - WIND CHILL INDEX
HX  - HEAT INDEX



USA.gov is the U.S. government's official web portal to all federal, state and local government web resources and services.